Location: Sternwarte_Laufen
(47.9344°N, 12.9346°E)
Time: 16:37:21
(UTC+02:00)

ISS - Pass Details

Date: 11 May 2026
Orbit: 414 x 424 km, 51.6° (Epoch: 21 May)

Event Time Altitude Azimuth Distance (km) Brightness Sun altitude
Rises 21:41:34 0° 243° (WSW) 2,343 0.3 -10.0°
Reaches altitude 10° 21:43:39 10° 243° (WSW) 1,483 -0.7 -10.2°
Maximum altitude 21:46:59 83° 156° (SSE) 422 -3.9 -10.6°
Drops below altitude 10° 21:50:20 10° 68° (ENE) 1,492 -1.2 -11.0°
Sets 21:52:26 0° 67° (ENE) 2,358 -0.2 -11.3°
